Weather History for K7BM - July, 2013

Change the Weather History Date:

Sunday, July 7, 2013

  Actual Average Record
Temperature  
Mean Temperature 66 °F -  
Max Temperature 78 °F - - ()
Min Temperature 55 °F - - ()
Cooling Degree Days 2    
Growing Degree Days 16 (Base 50)    
Moisture  
Dew Point 41 °F    
Average Humidity 45    
Maximum Humidity 72    
Minimum Humidity 20    
Precipitation  
Precipitation 0.00 in - - ()
Sea Level Pressure  
Sea Level Pressure 30.44 in    
Wind  
Wind Speed 6 mph (West)    
Max Wind Speed 18 mph    
Max Gust Speed 28 mph    
Visibility 10 miles    
Events Rain , Thunderstorm    
T = Trace of Precipitation, MM = Missing Value Source: NWS Daily Summary

Daily Weather History Graph

Daily Weather History Graph

Search for Another Location

Airport or City:

Trip Planner

Search our weather history database for the weather conditions in past years. The results will help you decide how hot, cold, wet, or windy it might be!

Date:

Astronomy

Jul. 07, 2013 Rise Set
Actual Time 5:47 AM MDT 8:32 PM MDT
Civil Twilight 5:15 AM MDT 9:03 PM MDT
Nautical Twilight 4:35 AM MDT 9:43 PM MDT
Astronomical Twilight 3:51 AM MDT 10:28 PM MDT
Moon 5:24 AM MDT (7/7) 7:59 PM MDT (7/7)
Length of Visible Light 15h 48m
Length of Day
14h 45m
Waning Crescent, 0% of the Moon is Illuminated
Jul 7
Waning Crescent
Jul 8
New
Jul 15
First Quarter
Jul 22
Full
Jul 29
Last Quarter

Hourly Weather History & Observations

Time (MDT) Temp. Dew Point Humidity Pressure Visibility Wind Dir Wind Speed Gust Speed Precip Events Conditions
12:14 AM 59.0 °F 42.8 °F 55% 30.43 in 10.0 mi West 3.5 mph - N/A   Overcast
12:35 AM 59.0 °F 42.8 °F 55% 30.42 in 10.0 mi WSW 9.2 mph - N/A   Light Drizzle
12:55 AM 57.2 °F 42.8 °F 59% 30.42 in 10.0 mi WSW 4.6 mph - N/A   Mostly Cloudy
1:15 AM 59.0 °F 42.8 °F 55% 30.42 in 10.0 mi West 5.8 mph - N/A   Scattered Clouds
1:35 AM 55.4 °F 42.8 °F 63% 30.42 in 10.0 mi NW 5.8 mph - N/A   Scattered Clouds
1:55 AM 55.4 °F 42.8 °F 63% 30.42 in 10.0 mi West 16.1 mph 24.2 mph N/A   Scattered Clouds
2:15 AM 59.0 °F 42.8 °F 55% 30.42 in 10.0 mi West 18.4 mph 27.6 mph N/A Rain Rain
2:35 AM 59.0 °F 41.0 °F 51% 30.41 in 10.0 mi West 16.1 mph 23.0 mph N/A   Mostly Cloudy
2:54 AM 59.0 °F 41.0 °F 51% 30.41 in 10.0 mi WSW 11.5 mph 18.4 mph N/A   Overcast
3:15 AM 59.0 °F 41.0 °F 51% 30.41 in 10.0 mi West 10.4 mph - N/A   Overcast
3:35 AM 59.0 °F 39.2 °F 48% 30.41 in 10.0 mi WNW 9.2 mph - N/A   Overcast
3:55 AM 59.0 °F 39.2 °F 48% 30.41 in 10.0 mi West 9.2 mph - N/A   Overcast
4:14 AM 59.0 °F 39.2 °F 48% 30.41 in 10.0 mi WNW 10.4 mph 16.1 mph N/A   Overcast
4:35 AM 59.0 °F 41.0 °F 51% 30.41 in 10.0 mi WNW 6.9 mph - N/A   Overcast
4:55 AM 59.0 °F 41.0 °F 51% 30.41 in 10.0 mi West 8.1 mph - N/A   Overcast
5:15 AM 59.0 °F 41.0 °F 51% 30.41 in 10.0 mi WNW 8.1 mph - N/A   Overcast
5:35 AM 59.0 °F 41.0 °F 51% 30.41 in 10.0 mi WNW 9.2 mph - N/A   Scattered Clouds
5:55 AM 59.0 °F 41.0 °F 51% 30.42 in 10.0 mi West 13.8 mph 17.3 mph N/A   Clear
6:15 AM 59.0 °F 41.0 °F 51% 30.43 in 10.0 mi WNW 6.9 mph - N/A   Clear
6:35 AM 59.0 °F 39.2 °F 48% 30.43 in 10.0 mi West 9.2 mph - N/A   Scattered Clouds
6:55 AM 59.0 °F 39.2 °F 48% 30.43 in 10.0 mi WNW 8.1 mph - N/A   Mostly Cloudy
7:15 AM 59.0 °F 39.2 °F 48% 30.43 in 10.0 mi WNW 8.1 mph 17.3 mph N/A   Scattered Clouds
7:35 AM 60.8 °F 39.2 °F 45% 30.43 in 10.0 mi WNW 8.1 mph - N/A   Clear
7:55 AM 62.6 °F 39.2 °F 42% 30.44 in 10.0 mi WNW 5.8 mph - N/A   Clear
8:15 AM 59.0 °F 42.8 °F 55% 30.45 in 10.0 mi Calm Calm - N/A   Clear
8:35 AM 62.6 °F 39.2 °F 42% 30.45 in 10.0 mi Calm Calm - N/A   Mostly Cloudy
8:55 AM 64.4 °F 41.0 °F 42% 30.46 in 10.0 mi East 3.5 mph - N/A   Mostly Cloudy
9:14 AM 64.4 °F 41.0 °F 42% 30.46 in 10.0 mi Calm Calm - N/A   Mostly Cloudy
9:34 AM 68.0 °F 41.0 °F 37% 30.46 in 10.0 mi Calm Calm - N/A   Mostly Cloudy
9:55 AM 68.0 °F 37.4 °F 33% 30.46 in 10.0 mi Calm Calm - N/A   Scattered Clouds
10:15 AM 69.8 °F 37.4 °F 31% 30.45 in 10.0 mi Calm Calm - N/A   Clear
10:35 AM 71.6 °F 37.4 °F 29% 30.45 in 10.0 mi ESE 3.5 mph - N/A   Clear
10:55 AM 73.4 °F 37.4 °F 27% 30.45 in 10.0 mi NE 3.5 mph - N/A   Clear
11:15 AM 73.4 °F 35.6 °F 25% 30.46 in 10.0 mi Calm Calm - N/A   Mostly Cloudy
11:35 AM 73.4 °F 35.6 °F 25% 30.46 in 10.0 mi Calm Calm - N/A   Mostly Cloudy
11:55 AM 73.4 °F 35.6 °F 25% 30.45 in 10.0 mi SE 6.9 mph - N/A   Mostly Cloudy
12:15 PM 75.2 °F 35.6 °F 24% 30.45 in 10.0 mi SE 5.8 mph - N/A   Mostly Cloudy
12:35 PM 73.4 °F 37.4 °F 27% 30.45 in 10.0 mi ESE 9.2 mph - N/A   Mostly Cloudy
12:54 PM 71.6 °F 37.4 °F 29% 30.45 in 10.0 mi SSE 6.9 mph 16.1 mph N/A   Scattered Clouds
1:15 PM 71.6 °F 41.0 °F 33% 30.44 in 10.0 mi SSE 11.5 mph 17.3 mph N/A   Scattered Clouds
1:35 PM 71.6 °F 39.2 °F 31% 30.44 in 10.0 mi ESE 4.6 mph - N/A Thunderstorm Thunderstorm
1:55 PM 73.4 °F 39.2 °F 29% 30.45 in 10.0 mi Calm Calm - N/A Thunderstorm Scattered Clouds
2:15 PM 73.4 °F 39.2 °F 29% 30.44 in 10.0 mi Calm Calm - N/A Thunderstorm Scattered Clouds
2:35 PM 77.0 °F 35.6 °F 22% 30.43 in 10.0 mi Calm Calm - N/A   Clear
2:55 PM 77.0 °F 35.6 °F 22% 30.43 in 10.0 mi Calm Calm - N/A   Clear
3:15 PM 78.8 °F 33.8 °F 20% 30.42 in 10.0 mi Calm Calm - N/A   Clear
3:35 PM 71.6 °F 37.4 °F 29% 30.42 in 10.0 mi Calm Calm - N/A Rain Light Rain
3:55 PM 71.6 °F 42.8 °F 35% 30.42 in 10.0 mi Calm Calm - N/A Rain Light Rain
4:14 PM 69.8 °F 37.4 °F 31% 30.42 in 10.0 mi Calm Calm - N/A   Scattered Clouds
4:35 PM 71.6 °F 37.4 °F 29% 30.41 in 10.0 mi SSE 9.2 mph - N/A   Scattered Clouds
4:55 PM 69.8 °F 37.4 °F 31% 30.41 in 10.0 mi SE 9.2 mph 17.3 mph N/A   Scattered Clouds
5:15 PM 69.8 °F 41.0 °F 35% 30.41 in 10.0 mi SE 9.2 mph 18.4 mph N/A   Mostly Cloudy
5:35 PM 68.0 °F 37.4 °F 33% 30.41 in 10.0 mi SSE 11.5 mph 16.1 mph N/A   Overcast
5:55 PM 64.4 °F 44.6 °F 49% 30.41 in 10.0 mi West 8.1 mph - N/A Rain Rain
6:15 PM 60.8 °F 46.4 °F 59% 30.41 in 5.0 mi NW 3.5 mph - N/A Rain Light Rain
6:35 PM 60.8 °F 46.4 °F 59% 30.41 in 7.0 mi Calm Calm - N/A Rain Rain
6:55 PM 60.8 °F 46.4 °F 59% 30.42 in 10.0 mi Calm Calm - N/A Thunderstorm Mostly Cloudy
7:15 PM 60.8 °F 46.4 °F 59% 30.42 in 10.0 mi NW 3.5 mph - N/A Thunderstorm Scattered Clouds
7:34 PM 59.0 °F 50.0 °F 72% 30.44 in 10.0 mi Calm Calm - N/A Thunderstorm Thunderstorm
7:55 PM 60.8 °F 46.4 °F 59% 30.44 in 10.0 mi Calm Calm - N/A   Mostly Cloudy
8:15 PM 60.8 °F 46.4 °F 59% 30.45 in 10.0 mi Calm Calm - N/A   Mostly Cloudy
8:35 PM 60.8 °F 46.4 °F 59% 30.45 in 10.0 mi Calm Calm - N/A Thunderstorm Thunderstorm
8:55 PM 62.6 °F 44.6 °F 52% 30.46 in 10.0 mi Calm Calm - N/A   Overcast
9:15 PM 62.6 °F 42.8 °F 48% 30.47 in 10.0 mi Calm Calm - N/A   Mostly Cloudy
9:35 PM 60.8 °F 44.6 °F 55% 30.48 in 10.0 mi Calm Calm - N/A   Mostly Cloudy
9:55 PM 62.6 °F 42.8 °F 48% 30.48 in 10.0 mi Calm Calm - N/A   Mostly Cloudy
10:15 PM 60.8 °F 42.8 °F 52% 30.49 in 10.0 mi Calm Calm - N/A Rain Light Rain
10:35 PM 59.0 °F 44.6 °F 59% 30.50 in 10.0 mi Calm Calm - N/A Rain Light Rain
10:55 PM 59.0 °F 44.6 °F 59% 30.50 in 10.0 mi Calm Calm - N/A   Overcast
11:15 PM 59.0 °F 42.8 °F 55% 30.49 in 10.0 mi Calm Calm - N/A   Overcast
11:35 PM 57.2 °F 44.6 °F 63% 30.49 in 10.0 mi Calm Calm - N/A   Mostly Cloudy
11:55 PM 55.4 °F 46.4 °F 72% 30.51 in 10.0 mi NW 8.1 mph - N/A Thunderstorm Thunderstorm